TimeMDT,TemperatureF,Dew PointF,Humidity,Sea Level PressureIn,VisibilityMPH,Wind Direction,Wind SpeedMPH,Gust SpeedMPH,PrecipitationIn,Events,Conditions,WindDirDegrees,DateUTC
12:54 AM,61.0,54.0,78,30.11,10.0,ESE,8.1,-,N/A,,Clear,110,2013-07-02 06:54:00
1:54 AM,60.1,54.0,80,30.10,10.0,ESE,9.2,-,N/A,,Clear,120,2013-07-02 07:54:00
2:54 AM,59.0,53.1,81,30.10,10.0,SSW,6.9,-,N/A,,Clear,200,2013-07-02 08:54:00
3:54 AM,59.0,52.0,78,30.09,10.0,SSE,4.6,-,N/A,,Clear,160,2013-07-02 09:54:00
4:54 AM,55.9,51.1,84,30.09,10.0,SE,5.8,-,N/A,,Clear,140,2013-07-02 10:54:00
5:54 AM,55.9,51.1,84,30.11,10.0,SSE,6.9,-,N/A,,Clear,160,2013-07-02 11:54:00
6:54 AM,60.1,54.0,80,30.09,10.0,ESE,4.6,-,N/A,,Clear,120,2013-07-02 12:54:00
8:54 AM,73.9,55.9,53,30.06,10.0,ESE,5.8,-,N/A,,Clear,110,2013-07-02 14:54:00
9:54 AM,79.0,55.9,45,30.05,10.0,East,5.8,-,N/A,,Clear,100,2013-07-02 15:54:00
10:54 AM,82.9,53.1,36,30.04,10.0,Calm,Calm,-,N/A,,Clear,0,2013-07-02 16:54:00
11:54 AM,84.9,54.0,34,30.04,10.0,Variable,3.5,-,N/A,,Clear,0,2013-07-02 17:54:00
12:54 PM,86.0,54.0,33,30.02,10.0,Variable,3.5,-,N/A,,Clear,0,2013-07-02 18:54:00
1:54 PM,87.1,55.9,35,30.01,10.0,Calm,Calm,-,N/A,,Clear,0,2013-07-02 19:54:00
2:54 PM,88.0,53.1,30,30.00,10.0,Variable,3.5,-,N/A,,Clear,0,2013-07-02 20:54:00
3:54 PM,89.1,51.1,27,29.98,10.0,Calm,Calm,-,N/A,,Clear,0,2013-07-02 21:54:00
4:54 PM,90.0,53.1,28,29.97,10.0,North,3.5,-,N/A,,Clear,10,2013-07-02 22:54:00
5:54 PM,90.0,53.1,28,29.95,10.0,North,3.5,-,N/A,,Clear,10,2013-07-02 23:54:00
6:54 PM,90.0,54.0,29,29.93,10.0,Calm,Calm,-,N/A,,Clear,0,2013-07-03 00:54:00
7:54 PM,84.0,55.0,37,29.91,10.0,SE,3.5,-,N/A,,Clear,130,2013-07-03 01:54:00
8:54 PM,78.1,55.9,46,29.89,10.0,ESE,3.5,-,N/A,,Clear,120,2013-07-03 02:54:00
9:54 PM,69.1,55.9,63,29.90,10.0,SE,5.8,-,N/A,,Clear,130,2013-07-03 03:54:00
10:54 PM,64.9,55.9,73,29.88,10.0,ESE,8.1,-,N/A,,Clear,110,2013-07-03 04:54:00
11:54 PM,64.0,54.0,70,29.86,10.0,ESE,8.1,-,N/A,,Clear,120,2013-07-03 05:54:00